Location: Paris
(48.6709°N, 2.3750°E)
Time: 08:47:23
(UTC+02:00)

CAS-4B - Pass Details

Date: 04 July 2022
Orbit: 522 x 537 km, 43.0° (Epoch: 08 August)

Event Time Altitude Azimuth Distance (km) Brightness Sun altitude
Exits shadow 04:09:27 20° 221° (SW) 1,264 ? -12.4°
Maximum altitude 04:11:35 33° 170° (S) 893 ? -12.2°
Drops below altitude 10° 04:15:13 10° 106° (ESE) 1,762 ? -11.9°
Sets 04:17:36 0° 96° (E) 2,654 ? -11.7°
